Погода в Новом Мултане

Россия / Удмуртская Республика     57°09′22″N   52°17′12″E
темп.,
°C
ветер,
м/с
пор.,
м/с
влажн.,
%
обл.,
%
осадки,
мм/ч
давл.,
гПа
погр.,
м
14 апреля, ср
ср1401:00+5ююз269669 0.0 103274
04:00+4ююз239653 0.0 103238
07:00+6юз239979 0.0 103187
10:00+12ююз247837 0.0 1030312
13:00+17ююз355749 0.0 1028855
16:00+18ююз355436 0.0 10271127
19:00+13ю22755 0.0 102623
22:00+10ю22855 0.0 102523
15 апреля, чт
чт1501:00+8ю23915 0.0 102436
04:00+8ююз22935 0.0 102327
07:00+8ю25925 0.0 1022141
10:00+14ююз46742 0.0 1021575
13:00+17юз466162 0.0 10191340
16:00+15зюз366866 0.1 1018512
19:00+13з2477100 0.1 101874
22:00+9ссв6119084 1.4 1020449
16 апреля, пт
пт1601:00+6св51188100 1.4 1022605
04:00+4св51178100 1.4 1024680
07:00+4св51172100 0.0 1025782
10:00+6св57480 0.0 1026978
13:00+9св56390 0.0 10261281
16:00+9св45353 0.0 10261424
19:00+6ссв36495 0.0 1027158
22:00+3св22615 0.0 102830
17 апреля, сб
сб1701:00+1с22665 0.0 102819
04:000с22695 0.0 102820
07:00+2ссз26630 0.0 1028195
10:00+7ссз47505 0.0 10271235
13:00+9с564793 0.0 10271818
16:00+9с564586 0.0 10261777
19:00+6сз255834 0.0 1027131
22:00+3ссз28685 0.0 1028166
18 апреля, вс
вс1801:00+2с411715 0.0 1028425
04:000ссз310845 0.0 1029272
07:00+1ссз39815 0.0 1030494
10:00+5ссз475589 0.0 10301297
13:00+6ссз5755100 0.0 10301568
16:00+5с4860100 0.0 10311520
19:00+4с366355 0.0 1032409
22:00+1ссв227692 0.0 103332